Dewpoint
10 10 11 12 13 13 13 13 13 12 13 14 13 14 15 16 17 16 16 15 14 13 13 13 13 13 13 13 13 14 15 15 14 13 15 16 16 16 16 17 16 16
10 9 10 11 12 13 13 13 13 13 13 14 14 14 15 16 17 17 16 16 15 14 13 13 12 12 12 12 12 13 14 13 13 13 14 15 17 17 17 17 17 16
10 9 9 10 11 12 12 13 14 15 15 16 16 15 15 16 17 17 16 17 16 15 14 13 13 13 12 12 12 12 13 13 13 13 14 15 16 17 17 16 16 16
9 9 9 10 10 11 11 12 14 16 17 17 16 16 16 16 16 16 16 16 16 16 16 15 16 15 14 14 13 12 13 13 13 13 14 15 15 15 14 15 16 16
9 9 9 9 10 10 11 12 14 16 17 17 17 16 16 16 17 17 17 16 16 16 16 17 17 16 15 15 15 14 14 14 14 14 15 15 15 15 14 15 17 17
10 10 10 10 11 13 14 14 15 16 17 17 17 16 16 16 17 17 17 16 16 16 16 16 17 16 16 16 16 15 15 15 15 16 16 16 16 16 16 16 17 17
10 11 12 13 15 16 16 16 16 16 17 16 16 16 17 17 17 17 17 17 17 16 15 15 16 17 16 16 17 16 16 16 16 16 15 16 16 15 15 15 15 15
12 12 12 13 15 16 16 16 16 16 16 16 16 16 16 17 17 16 17 17 17 17 16 16 17 17 17 17 17 17 17 17 16 16 16 15 15 15 15 16 15 15
16 15 14 14 15 16 16 16 16 16 16 16 16 16 16 16 16 16 17 17 17 17 17 17 17 17 16 17 17 18 18 16 15 16 16 16 16 16 16 16 16 16
17 17 16 16 15 16 16 16 16 16 16 16 16 16 16 16 16 16 16 17 17 17 17 17 17 17 17 17 17 17 17 16 15 15 15 15 15 15 15 15 15 15
17 17 17 17 16 15 16 16 16 16 16 16 16 16 16 16 16 16 16 16 16 16 16 16 17 17 17 17 18 18 17 17 16 16 16 16 15 15 15 15 15 15
16 16 16 16 16 15 15 15 15 16 16 16 16 16 16 16 16 16 16 16 16 16 16 16 17 17 17 17 17 17 17 17 17 16 16 16 16 16 16 15 15 15
16 16 16 16 16 16 15 15 15 15 15 16 16 16 16 16 16 16 15 16 16 16 16 16 16 17 17 16 17 16 16 16 16 16 16 15 16 16 16 15 15 14
16 16 16 16 16 16 15 15 15 15 15 15 15 15 16 16 16 15 15 16 16 16 16 17 17 18 17 17 16 16 16 16 16 15 15 15 15 16 16 15 15 15
15 15 16 16 16 16 16 15 15 15 15 15 15 15 15 15 15 15 16 16 16 15 16 16 17 17 17 16 16 16 16 16 16 15 15 15 15 15 15 16 16 17
15 15 16 16 16 16 16 16 15 15 16 16 15 15 15 15 15 15 15 16 15 15 15 15 16 17 17 16 16 16 16 16 16 16 16 15 15 16 16 16 16 16
15 16 16 17 16 16 16 16 16 16 16 16 16 16 15 15 15 15 15 15 16 15 15 16 16 16 17 17 16 16 16 16 16 16 16 16 16 17 17 16 16 16
16 16 17 17 16 16 16 16 16 16 16 16 16 16 16 16 16 16 15 15 16 15 15 15 16 16 16 17 16 15 16 16 16 16 16 16 16 16 16 16 15 15
17 17 17 17 16 16 16 16 16 16 16 16 16 16 16 16 16 16 16 16 16 15 15 15 15 16 16 16 15 15 16 16 16 16 16 16 16 16 15 15 15 15
15 15 16 16 16 15 16 16 15 16 17 17 17 16 16 15 16 16 16 17 17 16 15 15 15 15 16 15 15 15 15 16 16 16 16 16 16 15 15 15 15 15
13 13 14 15 15 15 15 15 15 17 17 18 17 17 16 15 14 14 15 16 17 16 16 15 15 15 16 16 15 15 15 16 16 16 16 16 16 15 15 14 15 15
13 12 14 15 15 15 15 15 16 17 18 18 17 17 16 15 14 14 14 14 16 16 15 15 15 15 15 16 15 15 15 15 16 16 16 15 15 15 15 14 14 15
12 12 15 16 16 16 16 16 16 17 17 17 17 17 17 16 15 15 14 15 16 16 15 15 15 15 16 16 16 16 16 16 16 16 15 15 15 15 15 15 15 15
13 14 16 16 16 17 17 17 16 17 17 17 17 18 17 16 15 16 16 16 17 16 16 16 16 16 16 16 16 16 16 16 15 15 15 15 15 15 14 14 14 14
15 16 17 17 17 17 18 17 17 17 17 16 17 18 17 17 17 17 17 17 17 17 17 17 17 17 16 16 16 16 16 16 15 14 14 14 14 13 13 13 13 12
17 17 17 18 18 18 17 17 17 17 17 17 18 18 17 17 17 17 17 17 17 17 17 17 17 17 16 16 16 15 15 14 13 13 12 12 11 11 11 11 10 8
Wind_Speed
19 18 17 16 16 14 13 13 14 14 13 13 12 12 12 11 9 9 9 7 8 8 8 8 8 8 9 9 9 8 9 9 7 6 6 5 4 4 3 2 3 5
20 18 17 17 16 14 14 13 13 13 12 11 11 12 13 12 11 12 11 10 9 8 8 8 8 7 8 9 8 8 9 9 8 7 6 5 4 5 4 4 5 5
20 19 18 18 17 15 14 14 13 12 10 10 10 10 12 13 12 13 12 11 10 9 8 8 7 7 8 8 8 8 8 8 8 7 7 7 7 8 8 7 6 5
21 20 19 19 18 16 15 15 15 14 12 12 11 11 13 14 14 15 14 13 11 9 9 8 7 7 7 8 7 6 7 7 7 6 7 8 8 8 7 5 5 4
22 21 19 19 18 17 16 15 16 16 16 14 12 12 13 14 14 15 14 13 13 12 11 10 9 8 6 7 7 6 6 6 6 6 6 6 6 6 4 3 5 6
22 21 19 18 17 15 14 13 14 14 15 15 13 12 12 12 13 13 13 12 11 12 13 13 10 8 7 8 7 6 5 6 6 7 7 5 4 4 3 5 7 8
22 21 20 18 16 14 14 14 14 14 13 13 12 12 12 13 13 13 13 12 10 10 11 11 9 7 7 7 7 6 6 6 8 9 9 7 6 6 5 6 8 8
21 20 20 20 19 17 17 17 16 16 16 14 12 13 14 15 14 14 14 14 11 8 8 10 9 9 8 8 8 7 7 8 8 8 8 9 8 7 6 6 7 8
20 18 18 20 21 20 20 20 18 16 17 17 17 16 16 16 15 13 14 14 13 10 9 10 11 10 9 11 11 9 9 10 8 8 8 8 8 7 6 6 6 6
20 18 17 19 20 21 21 20 19 17 16 16 17 16 16 17 16 14 13 13 14 14 13 11 11 11 10 11 11 10 11 11 9 8 8 7 7 6 6 6 5 5
21 20 19 19 19 20 21 18 14 14 15 14 14 15 16 17 17 16 14 13 14 15 15 14 12 12 12 11 11 12 11 10 9 8 7 6 5 5 5 5 5 5
23 22 19 17 16 16 16 15 13 13 15 14 14 15 16 16 16 16 15 15 14 14 15 16 14 13 13 12 12 12 11 10 9 9 8 7 5 5 6 6 6 6
23 22 19 18 17 16 15 15 15 16 17 16 15 16 16 15 14 15 16 16 15 14 14 16 14 13 12 11 11 12 10 9 8 8 9 8 6 6 7 7 7 6
24 23 22 20 19 18 18 19 17 16 16 17 17 17 17 16 15 15 16 17 16 14 13 14 12 12 11 10 10 11 10 8 7 7 7 6 6 7 7 7 7 7
25 25 23 20 19 18 18 19 19 16 14 15 15 16 16 17 16 15 15 17 16 12 11 11 11 12 12 11 10 10 9 8 8 7 7 5 5 5 5 5 6 6
25 25 23 20 20 20 18 18 20 19 15 13 13 14 15 17 18 17 15 15 15 14 12 12 11 12 13 11 9 9 9 8 8 8 7 4 3 4 4 4 5 6
25 24 24 23 22 22 20 18 20 21 20 17 15 14 15 16 16 17 17 16 15 14 13 13 13 14 13 12 10 11 11 9 9 9 6 3 2 4 5 6 7 8
26 25 25 25 25 24 22 21 21 21 21 19 18 17 17 17 16 17 18 17 16 13 13 14 16 16 15 13 12 13 12 11 11 10 8 6 5 6 8 10 11 12
22 22 22 23 24 24 23 23 22 21 19 19 19 19 19 19 18 18 18 18 17 15 13 13 15 16 15 13 12 12 13 13 12 12 11 11 10 11 12 13 14 15
18 19 20 22 23 22 22 23 23 22 20 18 19 21 21 21 20 19 19 19 17 16 15 13 13 14 15 14 12 12 13 14 13 13 13 14 14 13 14 15 15 15
19 19 21 23 22 22 21 22 22 21 20 20 21 22 22 21 21 21 20 21 20 19 18 16 15 14 14 14 14 13 14 15 14 14 15 15 15 16 16 15 14 14
21 20 21 23 23 22 21 21 22 22 22 23 24 23 23 21 21 21 22 24 23 21 20 19 17 15 14 14 14 14 14 15 15 15 15 15 15 15 14 14 14 15
22 22 23 25 25 25 23 23 23 23 24 24 24 24 24 23 22 22 23 24 23 22 21 20 18 16 15 15 16 16 16 16 15 15 13 12 12 12 13 13 14 15
23 24 25 26 27 27 26 24 24 24 25 25 25 26 26 25 24 24 23 23 22 22 21 20 18 17 17 17 17 17 16 15 13 11 10 9 9 11 12 12 13 13
22 25 27 28 28 28 26 25 24 23 23 23 23 24 26 24 23 24 23 22 23 23 21 19 18 18 18 19 19 18 15 12 9 7 7 6 6 7 9 10 9 9
22 24 27 28 27 26 25 23 21 19 20 20 19 21 24 21 20 23 24 23 23 23 22 20 18 18 19 19 19 17 13 10 8 6 5 4 4 3 5 7 6 6
Wind_Direction
200 199 194 194 196 199 200 198 202 205 199 198 202 201 201 199 195 203 212 219 219 217 216 214 214 211 211 222 227 226 230 244 262 263 247 249 273 281 251 245 279 282
202 202 199 198 200 202 204 203 204 207 203 199 202 203 200 196 199 209 223 231 221 217 222 220 220 220 220 227 230 228 233 244 255 256 247 247 263 266 251 241 246 252
204 204 203 204 206 206 208 206 204 204 208 210 209 205 196 195 207 215 220 227 224 219 220 217 220 228 230 234 234 229 230 240 246 243 240 240 248 258 261 262 250 239
206 207 207 208 210 211 213 212 205 201 209 217 216 208 200 200 211 219 221 225 227 227 223 219 228 234 228 230 237 234 233 244 249 247 246 244 252 262 262 264 259 250
208 210 211 212 215 214 214 215 209 203 208 215 217 209 202 206 212 214 220 227 228 229 226 225 231 237 232 233 242 241 238 249 255 255 255 250 257 265 249 237 256 264
209 210 213 213 214 213 212 215 213 209 212 214 216 213 206 212 217 214 220 229 229 227 229 229 226 230 237 241 245 243 242 251 253 252 254 251 255 265 258 248 252 260
212 212 212 212 209 207 211 219 216 215 224 223 214 214 216 220 223 220 223 231 232 226 223 224 228 241 245 236 234 243 250 253 250 252 256 255 253 255 259 261 259 259
216 216 213 210 205 204 212 222 221 213 217 224 219 216 220 225 228 227 226 228 233 227 207 207 227 245 241 228 232 244 251 252 249 250 256 258 262 268 274 277 277 276
216 221 218 212 206 206 212 218 222 216 211 217 220 216 217 226 233 233 231 228 227 228 218 212 223 231 225 221 228 239 250 256 255 253 259 260 262 270 279 279 288 295
212 218 219 216 211 213 216 217 220 221 217 218 219 215 215 225 231 234 235 229 222 226 228 220 220 227 225 221 225 238 251 259 260 259 264 264 260 268 280 287 301 309
208 215 219 221 220 217 216 218 221 221 223 223 218 214 217 223 229 233 237 234 225 224 225 223 223 228 230 230 230 236 246 256 259 260 263 266 273 287 295 298 304 311
208 216 221 222 221 216 211 214 220 221 225 228 222 219 222 225 229 234 238 239 231 224 224 227 228 227 229 234 236 237 246 258 263 267 268 269 282 297 297 299 304 310
207 213 220 222 219 213 210 214 220 223 225 227 226 224 223 223 228 238 244 240 231 226 228 230 229 227 230 235 238 241 248 255 261 267 269 270 276 282 284 292 303 308
207 208 214 220 220 215 213 214 216 221 224 229 232 230 226 225 225 235 239 230 226 225 222 222 224 225 231 234 234 239 245 250 261 273 278 280 282 284 292 302 312 318
214 212 212 216 218 218 220 216 214 218 223 230 233 226 228 233 230 230 231 225 230 235 223 222 228 228 235 239 232 231 235 241 257 272 283 296 308 313 315 309 303 305
220 215 211 213 216 218 221 218 214 217 218 223 227 219 225 237 234 232 236 233 237 241 231 231 234 229 237 245 240 237 235 236 251 261 268 294 322 317 299 280 282 289
223 216 209 212 216 217 219 219 218 219 217 219 224 217 218 231 234 233 237 238 238 236 231 234 235 231 234 242 246 248 243 240 250 251 246 263 289 282 276 277 288 293
214 212 210 213 218 217 218 222 223 224 224 224 225 221 216 223 230 232 235 238 238 235 235 238 238 233 233 238 246 248 240 236 242 240 230 228 242 261 273 282 288 287
205 208 210 216 221 221 222 225 227 228 230 228 229 232 231 231 233 233 236 241 241 236 236 238 235 231 230 234 242 241 233 229 232 231 229 235 247 262 277 285 289 286
217 219 220 221 223 225 226 227 229 231 233 232 233 238 241 242 242 240 240 243 242 237 238 238 233 228 225 229 236 234 229 228 227 227 232 242 255 268 278 283 284 283
219 224 228 227 226 227 227 227 228 229 230 233 235 238 242 246 249 248 247 247 245 243 245 246 242 234 226 226 231 231 228 227 226 228 236 248 261 272 277 278 278 280
222 225 229 229 228 228 227 229 231 232 232 233 235 237 240 243 245 248 250 251 248 245 245 244 240 234 228 225 226 227 228 230 232 236 246 256 265 271 274 276 279 281
223 225 228 229 230 229 227 229 232 234 235 236 236 236 237 238 240 243 246 248 249 247 244 240 232 225 223 224 226 227 227 230 235 241 249 259 263 267 272 274 276 278
220 221 223 225 228 228 225 226 230 233 236 238 238 238 239 240 240 239 239 240 242 241 235 228 221 217 218 221 224 225 226 229 234 240 245 248 252 260 267 267 268 276
217 219 220 222 227 228 227 227 228 230 234 236 239 242 242 240 237 236 234 228 227 230 226 219 217 219 222 224 220 215 214 216 217 220 225 225 232 248 257 261 273 294
218 220 218 219 225 226 226 227 228 230 233 238 247 246 237 229 227 231 228 216 211 216 217 213 215 219 224 226 217 199 184 179 182 182 178 174 183 219 257 275 301 332
Height
1566 1568 1569 1570 1572 1573 1574 1575 1576 1577 1578 1578 1579 1580 1581 1582 1582 1583 1584 1584 1585 1586 1586 1587 1587 1588 1589 1589 1589 1590 1590 1590 1590 1591 1591 1591 1591 1592 1592 1592 1591 1591
1565 1567 1568 1569 1570 1572 1573 1574 1575 1576 1577 1578 1579 1580 1580 1581 1582 1583 1583 1584 1585 1585 1585 1586 1587 1587 1588 1588 1589 1589 1589 1590 1590 1590 1590 1590 1590 1591 1591 1591 1590 1590
1564 1565 1567 1568 1569 1571 1572 1573 1574 1575 1576 1577 1578 1579 1580 1581 1581 1582 1583 1583 1584 1584 1585 1585 1586 1586 1587 1587 1588 1588 1588 1589 1589 1589 1589 1589 1589 1590 1590 1590 1589 1590
1563 1564 1566 1567 1568 1570 1571 1572 1573 1574 1575 1576 1577 1578 1579 1580 1581 1581 1582 1582 1583 1583 1584 1585 1585 1585 1586 1586 1587 1587 1587 1587 1588 1588 1588 1588 1588 1588 1588 1588 1588 1588
1561 1563 1564 1566 1567 1569 1570 1571 1572 1573 1574 1575 1576 1577 1578 1579 1580 1580 1581 1581 1582 1582 1583 1583 1584 1584 1585 1585 1585 1586 1586 1586 1586 1587 1587 1587 1587 1587 1587 1587 1587 1587
1560 1562 1563 1565 1566 1568 1569 1570 1571 1572 1573 1574 1575 1576 1577 1578 1579 1579 1580 1580 1581 1581 1582 1582 1583 1583 1584 1584 1584 1585 1585 1585 1585 1585 1586 1586 1586 1586 1586 1586 1586 1586
1559 1561 1562 1564 1566 1567 1568 1569 1570 1572 1573 1574 1574 1575 1576 1577 1578 1578 1578 1579 1580 1580 1580 1581 1582 1582 1583 1583 1583 1583 1584 1584 1584 1584 1585 1585 1585 1585 1585 1585 1585 1585
1558 1560 1561 1563 1565 1566 1568 1569 1570 1571 1572 1573 1573 1574 1575 1575 1576 1577 1577 1578 1578 1579 1579 1580 1580 1581 1582 1582 1582 1582 1583 1583 1583 1583 1584 1584 1584 1584 1584 1584 1584 1583
1557 1559 1560 1562 1563 1565 1566 1567 1568 1569 1571 1571 1572 1573 1574 1574 1575 1575 1576 1576 1576 1577 1578 1578 1579 1580 1580 1580 1580 1581 1581 1581 1582 1582 1582 1582 1582 1583 1583 1583 1583 1583
1556 1557 1559 1560 1562 1563 1564 1566 1567 1568 1569 1570 1571 1572 1573 1573 1573 1574 1574 1574 1575 1575 1576 1577 1577 1578 1578 1579 1579 1579 1580 1580 1581 1581 1581 1581 1581 1581 1582 1582 1582 1582
1555 1556 1557 1558 1560 1561 1563 1564 1566 1566 1568 1569 1569 1570 1571 1571 1572 1572 1573 1573 1573 1574 1574 1574 1575 1576 1576 1577 1578 1578 1578 1579 1580 1580 1580 1580 1581 1581 1581 1581 1581 1581
1553 1554 1555 1556 1558 1559 1561 1563 1564 1565 1566 1567 1568 1569 1569 1570 1570 1570 1570 1571 1571 1572 1572 1572 1573 1574 1575 1575 1576 1577 1577 1578 1578 1579 1579 1580 1580 1580 1580 1580 1580 1580
1551 1552 1553 1554 1556 1558 1560 1561 1563 1564 1565 1565 1566 1567 1567 1568 1568 1568 1568 1568 1569 1569 1570 1570 1571 1572 1573 1574 1575 1575 1576 1576 1577 1577 1578 1578 1579 1579 1579 1579 1579 1579
1549 1550 1552 1553 1555 1557 1558 1560 1561 1563 1563 1564 1565 1565 1565 1565 1566 1566 1566 1565 1566 1567 1568 1569 1570 1571 1572 1572 1573 1573 1574 1575 1575 1576 1576 1577 1577 1578 1578 1578 1577 1577
1548 1549 1551 1552 1554 1555 1557 1558 1560 1561 1562 1562 1563 1564 1564 1563 1563 1564 1563 1564 1565 1567 1568 1568 1570 1571 1571 1571 1572 1572 1573 1573 1574 1574 1575 1575 1576 1576 1576 1577 1576 1576
1545 1547 1549 1551 1552 1554 1555 1557 1558 1559 1560 1561 1561 1562 1562 1562 1562 1562 1562 1564 1565 1566 1567 1567 1568 1569 1569 1570 1570 1571 1571 1572 1572 1573 1574 1575 1575 1575 1575 1575 1575 1575
1545 1546 1548 1549 1551 1553 1554 1555 1556 1557 1559 1559 1560 1561 1561 1560 1561 1561 1562 1563 1564 1565 1566 1566 1566 1567 1567 1568 1569 1569 1570 1571 1571 1572 1573 1573 1573 1573 1573 1573 1574 1574
1541 1543 1545 1548 1549 1551 1552 1554 1555 1556 1557 1559 1559 1559 1559 1559 1560 1560 1561 1562 1562 1563 1564 1564 1565 1566 1566 1566 1567 1567 1568 1569 1569 1571 1571 1571 1571 1571 1571 1572 1572 1572
1539 1542 1544 1547 1548 1550 1551 1552 1553 1555 1556 1557 1557 1557 1557 1558 1559 1559 1560 1560 1560 1561 1562 1562 1563 1564 1564 1564 1565 1565 1566 1567 1567 1569 1569 1569 1569 1569 1570 1570 1569 1569
1541 1543 1544 1546 1547 1549 1550 1551 1552 1553 1554 1555 1555 1555 1555 1556 1557 1558 1559 1558 1559 1560 1560 1560 1561 1561 1561 1562 1563 1563 1564 1564 1565 1566 1566 1567 1567 1568 1568 1568 1567 1567
1538 1539 1541 1543 1545 1547 1549 1550 1551 1551 1552 1553 1552 1552 1552 1553 1554 1556 1556 1557 1557 1558 1558 1558 1559 1559 1559 1560 1561 1561 1562 1562 1563 1563 1564 1564 1565 1565 1566 1566 1565 1565
1534 1536 1538 1540 1543 1546 1547 1548 1549 1549 1549 1549 1549 1549 1549 1550 1551 1552 1553 1554 1555 1556 1556 1556 1556 1557 1557 1558 1558 1559 1559 1560 1561 1561 1562 1562 1562 1563 1563 1563 1563 1563
1532 1533 1535 1538 1540 1543 1545 1546 1546 1546 1546 1546 1546 1546 1545 1546 1547 1547 1548 1550 1553 1554 1554 1554 1554 1554 1555 1556 1556 1557 1557 1558 1559 1559 1559 1560 1560 1560 1561 1561 1560 1560
1529 1531 1533 1535 1538 1540 1542 1543 1543 1543 1543 1544 1544 1543 1542 1544 1544 1542 1543 1547 1550 1551 1551 1551 1551 1552 1552 1553 1554 1554 1555 1555 1556 1557 1557 1558 1557 1558 1558 1558 1558 1558
1527 1529 1531 1533 1535 1537 1539 1539 1539 1540 1540 1541 1541 1540 1540 1542 1542 1541 1541 1544 1546 1548 1548 1548 1549 1549 1549 1549 1549 1550 1551 1552 1553 1554 1555 1556 1555 1556 1556 1556 1557 1557
1528 1529 1529 1531 1533 1534 1536 1537 1537 1538 1539 1539 1539 1538 1537 1537 1539 1539 1540 1541 1543 1544 1544 1544 1545 1546 1547 1546 1546 1546 1547 1548 1551 1552 1553 1554 1554 1554 1555 1555 1556 1557